Location: Baia Mare
(47.6567°N, 23.5850°E)
Time: 07:16:16
(UTC+03:00)

ISS - Pass Details

Date: 31 July 2018
Orbit: 402 x 408 km, 51.6° (Epoch: 21 July)

Event Time Altitude Azimuth Distance (km) Brightness Sun altitude
Rises 21:38:56 0° 286° (WNW) 2,321 1.6 -6.1°
Reaches altitude 10° 21:41:05 10° 294° (WNW) 1,462 0.6 -6.4°
Maximum altitude 21:44:13 41° 6° (N) 605 -2.7 -6.8°
Drops below altitude 10° 21:47:20 10° 79° (ENE) 1,463 -1.4 -7.3°
Enters shadow 21:48:41 - 84° (E) 1,993 -0.8 -7.4°
